Weather in Kurorta

Russia / Republic of Bashkortostan     53°55′20″N   56°31′21″E
temp.,
°C
wind,
m/s
gust,
m/s
humid.,
%
clouds,
%
prec.,
mm/h
press.,
hPa
HPBL,
m
3 march, wed
wed323:00−8ssw81693100 2.5 1005727
02:00−5ssw81494100 1.7 1003693
05:00−4ssw61296100 4.1 1003643
08:00−4ssw5996100 1.4 1001398
11:00−2ssw4696100 2.4 1002407
14:00−1sw3598100 0.7 1001445
17:00−1sw2493100 1.0 1001417
20:00−5wsw2295100 0.3 100138
4 march, thu
thu423:00−6sw259799 0.4 1002102
02:00−6sw3796100 1.1 1001279
05:00−9sw2596100 2.3 1003211
08:00−11wsw3696100 1.3 1004210
11:00−10ssw4794100 1.4 1006334
14:00−7ssw71091100 0.1 1004697
17:00−7ssw81493100 0.8 1003742
20:00−6ssw91594100 1.7 1002919
5 march, fri
fri523:00−5ssw91693100 3.9 1000941
02:00−1wsw81591100 1.7 9991187
05:00−3sw51391100 1.9 1001795
08:00−2sw31094100 0.5 1003547
11:00−1sw61197100 3.9 1003769
14:00−1ssw81396100 2.9 1002971
17:00−1sw71297100 5.8 1001845
20:000ssw61398100 3.3 1000788
6 march, sat
sat623:00−2wnw71198100 5.9 1003652
02:00−8nw4994100 1.3 1007502
05:00−17nnw129897 1.3 101320
08:00−19sse119958 0.0 101520
11:00−12sw228729 0.0 1015209
14:00−7sw238040 0.0 1014373
17:00−6sw017970 0.0 1012251
20:00−8ne1289100 0.0 101022
7 march, sun
sun723:00−8n2297100 0.7 100773
02:00−9nw2597100 1.9 1005209
05:00−10w2496100 2.9 1006164
08:00−14sw2397100 0.8 100783
11:00−13wsw3594100 1.4 1009413
14:00−11w4592100 0.5 1010569
17:00−13w3587100 0.7 1011588
20:00−17ssw339681 0.0 101358